period_start,C,m1,H,J0,J1,J2,J3,J4,J5,JA,JB,JC,JD,JJ,JK,JN,#
2013-10-19 00:00:14,-0.07,2.70,0.00,26.95,28.83,31.44,5.69,29.46,1011.73,2038.66,2507.94,2613.99,2826.02,349.29,317.52,31.82,0000 0000 0000 0000 000000
2013-10-19 00:01:14,-0.05,2.70,0.00,26.93,28.83,31.44,5.82,29.50,1011.73,2038.77,2507.90,2613.98,2826.00,350.37,318.52,31.83,0000 0000 0000 0000 000000
2013-10-19 00:02:15,0.11,2.70,0.00,26.93,28.83,31.45,5.93,29.63,1011.73,2038.85,2507.78,2613.99,2826.00,350.80,318.77,31.84,0000 0000 0000 0000 000000
2013-10-19 00:03:15,0.09,2.71,0.00,26.94,28.83,31.45,5.79,29.50,1011.73,2038.85,2507.66,2613.98,2826.00,349.89,318.13,31.84,0000 0000 0000 0000 000000
2013-10-19 00:04:15,0.02,2.71,0.00,26.96,28.83,31.49,5.96,29.79,1011.73,2038.88,2507.44,2613.98,2826.00,350.01,318.29,31.85,0000 0000 0000 0000 000000
2013-10-19 00:05:16,0.07,2.71,0.00,26.97,28.83,31.42,5.77,29.79,1011.73,2038.91,2507.30,2613.92,2826.00,349.77,317.99,31.85,0000 0000 0000 0000 000000
2013-10-19 00:06:16,0.05,2.71,0.00,26.98,28.84,31.42,5.90,29.46,1011.73,2038.86,2507.15,2613.83,2826.00,350.12,318.41,31.86,0000 0000 0000 0000 000000
2013-10-19 00:07:16,0.03,2.71,0.00,26.98,28.84,31.43,5.74,29.54,1011.73,2038.86,2507.07,2613.64,2826.00,350.08,318.33,31.86,0000 0000 0000 0000 000000
2013-10-19 00:08:17,0.04,2.71,0.00,26.95,28.84,31.43,5.91,29.71,1011.72,2038.72,2507.03,2613.37,2826.00,349.54,317.75,31.87,0000 0000 0000 0000 000000
2013-10-19 00:09:17,0.00,2.71,0.00,26.94,28.84,31.45,5.79,29.63,1011.73,2038.82,2507.01,2613.32,2825.99,349.29,317.53,31.88,0000 0000 0000 0000 000000
2013-10-19 00:10:17,0.08,2.71,0.00,26.95,28.84,31.46,5.85,29.75,1011.72,2038.83,2507.00,2613.28,2825.98,349.42,317.63,31.88,0000 0000 0000 0000 000000
2013-10-19 00:11:17,0.03,2.71,0.00,26.95,28.85,31.45,5.78,29.83,1011.71,2038.87,2507.00,2613.25,2825.96,348.91,317.69,31.89,0000 0000 0000 0000 000000
2013-10-19 00:12:18,0.05,2.71,0.00,26.97,28.85,31.47,5.70,29.46,1011.71,2038.88,2507.00,2613.21,2825.96,349.58,317.76,31.89,0000 0000 0000 0000 000000
2013-10-19 00:13:18,0.02,2.71,0.00,26.97,28.85,31.42,5.85,29.67,1011.69,2038.92,2507.00,2613.14,2825.96,349.37,317.95,31.90,0000 0000 0000 0000 000000
2013-10-19 00:14:18,0.06,2.71,0.00,26.98,28.85,31.46,5.84,29.42,1011.68,2038.93,2507.00,2613.11,2825.95,349.87,317.86,31.91,0000 0000 0000 0000 000000
2013-10-19 00:15:19,0.02,2.71,0.00,26.98,28.85,31.42,5.89,29.75,1011.66,2038.90,2507.00,2613.07,2825.88,350.14,317.97,31.91,0000 0000 0000 0000 000000
2013-10-19 00:16:19,-0.02,2.71,0.00,26.98,28.85,31.44,5.88,29.54,1011.64,2038.87,2507.00,2613.03,2825.82,350.78,318.82,31.92,0000 0000 0000 0000 000000
2013-10-19 00:17:19,0.02,2.71,0.00,26.96,28.85,31.42,5.69,29.46,1011.63,2038.89,2507.00,2613.01,2825.76,348.76,317.35,31.92,0000 0000 0000 0000 000000
2013-10-19 00:18:20,0.02,2.71,0.00,26.99,28.85,31.41,6.00,29.54,1011.59,2038.91,2506.99,2613.00,2825.64,350.89,318.54,31.93,0000 0000 0000 0000 000000
2013-10-19 00:19:20,0.03,2.71,0.00,26.95,28.85,31.43,5.66,29.58,1011.51,2038.89,2506.97,2613.00,2825.42,348.54,316.77,31.94,0000 0000 0000 0000 000000
2013-10-19 00:20:20,0.03,2.71,0.00,26.89,28.85,31.43,5.94,29.54,1011.47,2038.83,2506.96,2613.00,2825.21,349.52,317.71,31.94,0000 0000 0000 0000 000000
2013-10-19 00:21:21,-0.00,2.71,0.00,26.84,28.85,31.41,5.76,29.58,1011.39,2038.82,2506.95,2613.00,2825.13,350.34,318.40,31.95,0000 0000 0000 0000 000000
2013-10-19 00:22:21,-0.01,2.71,0.00,26.74,28.85,31.42,5.93,29.58,1011.43,2038.77,2506.91,2613.00,2825.05,349.78,318.16,31.95,0000 0000 0000 0000 000000
2013-10-19 00:23:21,-0.02,2.71,0.00,26.58,28.85,31.47,5.87,29.79,1011.44,2038.80,2506.85,2613.00,2825.02,349.88,317.97,31.96,0000 0000 0000 0000 000000
2013-10-19 00:24:21,0.04,2.71,0.00,26.41,28.85,31.44,5.86,29.63,1011.34,2038.81,2506.84,2613.00,2825.01,350.26,319.15,31.96,0000 0000 0000 0000 000000
2013-10-19 00:25:22,0.02,2.71,0.00,26.28,28.86,31.48,5.74,29.79,1011.34,2038.83,2506.78,2613.00,2825.01,349.74,318.52,31.97,0000 0000 0000 0000 000000
2013-10-19 00:26:22,-0.00,2.71,0.00,26.24,28.87,31.54,5.78,29.63,1011.31,2038.75,2506.62,2612.98,2825.00,349.52,318.34,31.98,0000 0000 0000 0000 000000
2013-10-19 00:27:22,-0.03,2.71,0.00,26.23,28.87,31.62,5.96,29.71,1011.31,2038.67,2506.38,2612.98,2825.00,350.71,318.84,31.98,0000 0000 0000 0000 000000
2013-10-19 00:28:23,-0.03,2.71,0.00,26.30,28.87,31.68,5.87,29.83,1011.31,2038.55,2506.32,2612.97,2825.00,350.08,318.80,31.99,0000 0000 0000 0000 000000
2013-10-19 00:29:23,-0.04,2.71,0.00,26.36,28.87,31.68,5.74,29.79,1011.32,2038.56,2506.41,2612.98,2825.00,349.14,317.88,31.99,0000 0000 0000 0000 000000
2013-10-19 00:30:23,0.03,2.71,0.00,26.35,28.87,31.72,5.93,29.67,1011.29,2038.65,2506.34,2612.98,2825.00,349.87,318.33,32.00,0000 0000 0000 0000 000000
2013-10-19 00:31:23,0.10,2.71,0.00,26.36,28.87,31.74,5.89,29.63,1011.29,2038.67,2506.18,2612.94,2825.00,350.60,318.59,32.01,0000 0000 0000 0000 000000
2013-10-19 00:32:24,0.04,2.71,0.00,26.39,28.87,31.74,5.89,29.83,1011.30,2038.67,2506.07,2612.94,2825.00,349.80,318.48,32.01,0000 0000 0000 0000 000000
2013-10-19 00:33:24,-0.05,2.71,0.00,26.47,28.88,31.72,5.96,29.79,1011.28,2038.52,2506.04,2612.90,2825.00,350.06,318.64,32.02,0000 0000 0000 0000 000000
2013-10-19 00:34:24,-0.05,2.71,0.00,26.58,28.89,31.71,5.93,29.79,1011.27,2038.43,2506.03,2612.64,2824.98,349.58,318.04,32.02,0000 0000 0000 0000 000000
2013-10-19 00:35:25,0.02,2.71,0.00,26.67,28.89,31.67,5.93,29.83,1011.27,2038.43,2506.01,2612.39,2824.98,350.12,318.43,32.03,0000 0000 0000 0000 000000
2013-10-19 00:36:25,0.01,2.71,0.00,26.70,28.89,31.63,5.71,29.75,1011.27,2038.28,2506.00,2612.18,2824.95,348.90,317.57,32.03,0000 0000 0000 0000 000000
2013-10-19 00:37:25,-0.00,2.71,0.00,26.75,28.90,31.62,5.83,29.71,1011.26,2038.33,2506.00,2612.16,2824.91,350.47,318.67,32.04,0000 0000 0000 0000 000000
2013-10-19 00:38:26,0.03,2.71,0.00,26.79,28.90,31.59,5.92,29.88,1011.26,2038.37,2505.99,2612.10,2824.87,350.32,318.23,32.05,0000 0000 0000 0000 000000
2013-10-19 00:39:26,0.07,2.71,0.00,26.83,28.90,31.56,6.09,29.96,1011.26,2038.43,2505.99,2612.06,2824.89,350.37,318.48,32.05,0000 0000 0000 0000 000000
2013-10-19 00:40:26,0.06,2.71,0.00,26.86,28.90,31.57,5.85,29.75,1011.26,2038.44,2505.98,2612.04,2824.78,349.55,317.93,32.06,0000 0000 0000 0000 000000
2013-10-19 00:41:26,0.05,2.71,0.00,26.87,28.90,31.53,5.81,29.79,1011.26,2038.41,2505.95,2612.03,2824.57,349.68,318.07,32.06,0000 0000 0000 0000 000000
2013-10-19 00:42:27,-0.01,2.71,0.00,26.87,28.89,31.51,5.88,30.42,1011.27,2038.28,2505.78,2612.01,2824.30,349.30,317.34,32.07,0000 0000 0000 0000 000000
2013-10-19 00:43:27,-0.02,2.71,0.00,26.87,28.88,31.53,5.69,30.21,1011.27,2038.21,2505.44,2612.00,2824.16,349.62,317.76,32.08,0000 0000 0000 0000 000000
2013-10-19 00:44:27,0.03,2.71,0.00,26.90,28.88,31.49,5.77,30.08,1011.26,2038.18,2505.31,2612.00,2824.07,350.48,318.51,32.08,0000 0000 0000 0000 000000
2013-10-19 00:45:27,0.04,2.71,0.00,26.92,28.88,31.48,5.92,29.71,1011.26,2038.21,2505.21,2612.00,2824.06,349.78,317.85,32.09,0000 0000 0000 0000 000000
2013-10-19 00:46:28,0.08,2.71,0.00,26.91,28.87,31.49,6.07,29.96,1011.25,2038.28,2505.16,2612.00,2824.07,351.04,319.00,32.09,0000 0000 0000 0000 000000
2013-10-19 00:47:28,0.04,2.71,0.00,26.90,28.87,31.44,5.75,29.67,1011.25,2038.21,2505.08,2612.00,2824.04,350.05,318.11,32.10,0000 0000 0000 0000 000000
2013-10-19 00:48:28,0.01,2.71,0.00,26.91,28.87,31.46,5.66,29.54,1011.25,2038.32,2505.03,2612.00,2824.03,349.19,317.37,32.11,0000 0000 0000 0000 000000
2013-10-19 00:49:28,0.01,2.71,0.00,26.90,28.87,31.47,5.67,29.63,1011.25,2038.24,2505.01,2612.00,2824.02,349.56,317.34,32.11,0000 0000 0000 0000 000000
2013-10-19 00:50:28,0.01,2.71,0.00,26.90,28.87,31.46,5.87,29.54,1011.25,2038.28,2505.00,2612.00,2824.00,350.42,318.31,32.12,0000 0000 0000 0000 000000
2013-10-19 00:51:29,0.03,2.71,0.00,26.92,28.87,31.46,5.88,29.88,1011.25,2038.31,2505.00,2612.00,2824.00,350.03,317.97,32.12,0000 0000 0000 0000 000000
2013-10-19 00:52:29,0.02,2.71,0.00,26.92,28.87,31.45,5.75,29.50,1011.25,2038.32,2505.00,2612.00,2824.00,349.40,317.90,32.13,0000 0000 0000 0000 000000
2013-10-19 00:53:29,-0.01,2.71,0.00,26.92,28.87,31.45,5.67,29.54,1011.25,2038.30,2505.00,2612.00,2824.00,349.44,317.56,32.13,0000 0000 0000 0000 000000
2013-10-19 00:54:29,-0.01,2.71,0.00,26.91,28.87,31.45,5.79,29.58,1011.25,2038.29,2505.00,2611.99,2824.00,349.52,317.62,32.14,0000 0000 0000 0000 000000
2013-10-19 00:55:29,-0.01,2.71,0.00,26.93,28.87,31.40,5.93,29.67,1011.25,2038.27,2505.00,2611.99,2824.00,350.40,318.40,32.15,0000 0000 0000 0000 000000
2013-10-19 00:56:30,0.02,2.71,0.00,26.94,28.87,31.40,5.92,29.75,1011.25,2038.36,2505.00,2611.99,2824.00,350.33,318.33,32.15,0000 0000 0000 0000 000000
2013-10-19 00:57:30,0.06,2.71,0.00,26.93,28.87,31.40,5.96,29.88,1011.25,2038.37,2504.98,2611.97,2824.00,350.60,318.03,32.16,0000 0000 0000 0000 000000
2013-10-19 00:58:30,0.01,2.71,0.00,26.92,28.87,31.41,5.67,29.75,1011.25,2038.31,2504.98,2611.97,2824.00,349.08,317.20,32.16,0000 0000 0000 0000 000000
2013-10-19 00:59:30,-0.03,2.71,0.00,26.93,28.87,31.43,5.97,29.75,1011.24,2038.29,2504.99,2611.96,2824.00,350.74,318.23,32.17,0000 0000 0000 0000 000000
2013-10-19 01:00:31,-0.02,2.71,0.00,26.93,28.87,31.40,5.77,29.67,1011.24,2038.38,2504.98,2611.95,2824.00,350.01,317.61,32.18,0000 0000 0000 0000 000000
2013-10-19 01:01:31,0.09,2.71,0.00,26.93,28.87,31.40,5.83,29.63,1011.24,2038.41,2504.98,2611.94,2824.00,350.17,318.04,32.18,0000 0000 0000 0000 000000
2013-10-19 01:02:31,0.06,2.71,0.00,26.94,28.87,31.41,5.95,29.71,1011.24,2038.38,2504.94,2611.88,2823.99,349.68,317.97,32.19,0000 0000 0000 0000 000000
2013-10-19 01:03:31,-0.04,2.71,0.00,26.94,28.87,31.39,5.79,29.54,1011.24,2038.27,2504.86,2611.77,2823.99,348.77,317.24,32.19,0000 0000 0000 0000 000000
2013-10-19 01:04:32,-0.01,2.71,0.00,26.94,28.87,31.39,5.63,29.67,1011.24,2038.23,2504.77,2611.74,2823.98,349.47,317.54,32.20,0000 0000 0000 0000 000000
2013-10-19 01:05:32,-0.01,2.71,0.00,26.96,28.87,31.42,6.00,29.96,1011.24,2038.16,2504.56,2611.57,2823.96,350.61,318.55,32.20,0000 0000 0000 0000 000000
2013-10-19 01:06:32,0.04,2.71,0.00,26.97,28.87,31.38,5.63,29.63,1011.24,2038.24,2504.35,2611.41,2823.92,349.69,317.72,32.21,0000 0000 0000 0000 000000
2013-10-19 01:07:33,0.17,2.71,0.00,26.97,28.87,31.38,5.77,29.50,1011.24,2038.33,2504.22,2611.27,2823.89,350.17,318.14,32.22,0000 0000 0000 0000 000000
2013-10-19 01:08:33,0.16,2.71,0.00,26.99,28.87,31.43,6.04,29.96,1011.24,2038.33,2504.12,2611.15,2823.82,350.42,318.35,32.22,0000 0000 0000 0000 000000
2013-10-19 01:09:33,0.05,2.71,0.00,26.98,28.87,31.40,5.82,29.71,1011.24,2038.33,2504.08,2611.11,2823.67,350.10,317.77,32.23,0000 0000 0000 0000 000000
2013-10-19 01:10:33,0.03,2.71,0.00,26.98,28.87,31.39,5.86,29.67,1011.24,2038.25,2504.06,2611.11,2823.55,349.23,317.27,32.23,0000 0000 0000 0000 000000
2013-10-19 01:11:34,-0.00,2.71,0.00,26.98,28.87,31.40,5.67,29.67,1011.23,2038.27,2504.04,2611.08,2823.50,349.48,317.51,32.24,0000 0000 0000 0000 000000
2013-10-19 01:12:34,0.01,2.71,0.00,26.98,28.87,31.41,5.73,29.54,1011.24,2038.25,2504.02,2611.07,2823.37,349.83,317.32,32.25,0000 0000 0000 0000 000000
2013-10-19 01:13:34,0.03,2.71,0.00,27.00,28.87,31.40,5.75,29.92,1011.24,2038.29,2504.01,2611.07,2823.25,349.70,317.69,32.25,0000 0000 0000 0000 000000
2013-10-19 01:14:34,0.02,2.71,0.00,27.00,28.87,31.43,5.78,29.67,1011.24,2038.33,2504.00,2611.03,2823.24,350.90,318.40,32.26,0000 0000 0000 0000 000000
2013-10-19 01:15:35,0.11,2.72,0.00,26.99,28.87,31.37,5.98,29.79,1011.24,2038.46,2504.00,2611.02,2823.18,350.79,318.96,32.26,0000 0000 0000 0000 000000
2013-10-19 01:16:35,0.08,2.72,0.00,27.01,28.86,31.41,5.82,29.63,1011.24,2038.44,2504.00,2611.01,2823.10,349.97,318.25,32.27,0000 0000 0000 0000 000000
2013-10-19 01:17:35,-0.01,2.72,0.00,27.01,28.86,31.38,5.87,29.75,1011.24,2038.41,2504.00,2611.01,2823.09,350.02,317.96,32.28,0000 0000 0000 0000 000000
2013-10-19 01:18:36,0.04,2.72,0.00,27.00,28.86,31.41,5.76,29.54,1011.24,2038.51,2504.00,2611.02,2823.09,350.05,317.79,32.28,0000 0000 0000 0000 000000
2013-10-19 01:19:36,-0.00,2.72,0.00,27.01,28.86,31.40,5.78,29.58,1011.24,2038.49,2504.00,2611.01,2823.06,350.02,318.26,32.29,0000 0000 0000 0000 000000
2013-10-19 01:20:36,0.04,2.72,0.00,26.97,28.85,31.40,6.06,29.75,1011.24,2038.56,2504.00,2611.01,2823.06,350.88,318.78,32.29,0000 0000 0000 0000 000000
2013-10-19 01:21:36,0.05,2.72,0.00,27.00,28.86,31.37,5.78,29.54,1011.24,2038.49,2504.00,2611.02,2823.05,349.62,317.86,32.30,0000 0000 0000 0000 000000
2013-10-19 01:22:37,-0.06,2.72,0.00,27.02,28.86,31.39,5.84,29.54,1011.24,2038.48,2504.00,2611.01,2823.03,350.64,318.51,32.30,0000 0000 0000 0000 000000
2013-10-19 01:23:37,0.02,2.72,0.00,27.02,28.86,31.43,5.68,29.46,1011.23,2038.58,2504.00,2611.00,2823.02,349.21,317.22,32.31,0000 0000 0000 0000 000000
2013-10-19 01:24:37,0.06,2.72,0.00,27.02,28.86,31.42,5.72,29.83,1011.24,2038.44,2504.00,2611.00,2823.03,350.34,317.88,32.32,0000 0000 0000 0000 000000
2013-10-19 01:25:38,-0.08,2.72,0.00,27.00,28.86,31.41,5.83,29.67,1011.24,2038.45,2504.00,2611.00,2823.03,349.81,317.78,32.32,0000 0000 0000 0000 000000
2013-10-19 01:26:38,0.01,2.72,0.00,27.00,28.86,31.42,5.98,29.75,1011.24,2038.39,2503.99,2611.00,2823.01,350.62,318.52,32.33,0000 0000 0000 0000 000000
2013-10-19 01:27:38,-0.02,2.72,0.00,27.03,28.86,31.39,5.86,29.75,1011.22,2038.43,2503.98,2611.00,2823.00,350.04,317.96,32.33,0000 0000 0000 0000 000000
2013-10-19 01:28:39,-0.04,2.72,0.00,27.03,28.86,31.43,5.80,29.58,1011.22,2038.40,2503.96,2611.00,2823.00,350.22,317.52,32.34,0000 0000 0000 0000 000000
2013-10-19 01:29:39,0.00,2.72,0.00,27.03,28.86,31.41,5.69,29.50,1011.23,2038.49,2503.92,2611.00,2823.00,349.43,317.76,32.35,0000 0000 0000 0000 000000
2013-10-19 01:30:39,0.12,2.72,0.00,27.01,28.87,31.45,5.69,29.50,1011.20,2038.53,2503.84,2611.00,2823.00,349.19,317.20,32.35,0000 0000 0000 0000 000000
2013-10-19 01:31:39,-0.03,2.72,0.00,26.97,28.87,31.43,5.81,29.71,1011.22,2038.38,2503.78,2611.00,2823.00,349.89,317.95,32.36,0000 0000 0000 0000 000000
2013-10-19 01:32:40,-0.04,2.72,0.00,26.87,28.87,31.40,5.93,29.58,1011.20,2038.39,2503.63,2611.00,2823.00,350.78,318.90,32.36,0000 0000 0000 0000 000000
2013-10-19 01:33:40,0.01,2.72,0.00,26.73,28.87,31.41,5.89,29.58,1011.19,2038.31,2503.57,2611.00,2822.98,350.20,318.06,32.37,0000 0000 0000 0000 000000
2013-10-19 01:34:40,-0.07,2.72,0.00,26.56,28.87,31.44,5.74,29.63,1011.20,2038.28,2503.58,2610.99,2822.97,349.34,317.95,32.37,0000 0000 0000 0000 000000
2013-10-19 01:35:40,-0.01,2.72,0.00,26.43,28.87,31.43,5.81,29.67,1011.19,2038.33,2503.49,2610.97,2822.97,349.52,317.91,32.38,0000 0000 0000 0000 000000
2013-10-19 01:36:41,0.02,2.72,0.00,26.29,28.87,31.44,6.00,29.83,1011.19,2038.39,2503.50,2610.96,2822.97,350.39,319.05,32.39,0000 0000 0000 0000 000000
2013-10-19 01:37:41,0.08,2.72,0.00,26.19,28.87,31.50,5.97,29.96,1011.23,2038.55,2503.53,2610.97,2822.97,351.58,319.92,32.39,0000 0000 0000 0000 000000
2013-10-19 01:38:41,0.13,2.72,0.00,26.11,28.87,31.59,5.82,29.75,1011.19,2038.43,2503.35,2610.92,2822.92,350.09,319.16,32.40,0000 0000 0000 0000 000000
2013-10-19 01:39:41,-0.05,2.72,0.00,26.13,28.87,31.65,5.85,29.75,1011.13,2038.23,2503.18,2610.74,2822.82,349.99,318.87,32.40,0000 0000 0000 0000 000000
2013-10-19 01:40:42,-0.04,2.72,0.00,26.16,28.88,31.70,6.02,29.92,1011.04,2038.30,2503.10,2610.64,2822.68,349.45,318.29,32.41,0000 0000 0000 0000 000000
2013-10-19 01:41:42,0.10,2.72,0.00,26.22,28.89,31.73,5.74,29.96,1011.02,2038.33,2503.10,2610.54,2822.71,349.29,318.07,32.42,0000 0000 0000 0000 000000
2013-10-19 01:42:42,0.05,2.72,0.00,26.29,28.89,31.74,5.98,30.17,1010.87,2038.22,2503.05,2610.28,2822.49,349.97,318.94,32.42,0000 0000 0000 0000 000000
2013-10-19 01:43:42,0.01,2.72,0.00,26.41,28.90,31.73,5.85,30.00,1010.82,2038.23,2503.03,2610.20,2822.31,349.88,318.35,32.43,0000 0000 0000 0000 000000
2013-10-19 01:44:43,0.06,2.72,0.00,26.42,28.90,31.72,5.93,30.04,1010.79,2038.14,2503.01,2610.10,2822.16,350.58,318.96,32.43,0000 0000 0000 0000 000000
2013-10-19 01:45:43,-0.02,2.72,0.00,26.46,28.90,31.73,5.56,29.79,1010.78,2038.11,2503.00,2610.09,2822.08,348.64,317.15,32.44,0000 0000 0000 0000 000000
2013-10-19 01:46:43,0.04,2.72,0.00,26.47,28.90,31.73,5.89,30.00,1010.79,2038.12,2503.00,2610.07,2822.06,350.31,318.21,32.45,0000 0000 0000 0000 000000
2013-10-19 01:47:43,-0.01,2.72,0.00,26.46,28.90,31.71,5.94,29.92,1010.78,2038.08,2503.00,2610.06,2822.04,350.20,318.89,32.45,0000 0000 0000 0000 000000
2013-10-19 01:48:44,-0.01,2.72,0.00,26.42,28.90,31.73,6.02,29.96,1010.79,2038.11,2503.01,2610.05,2822.03,351.12,319.14,32.46,0000 0000 0000 0000 000000
2013-10-19 01:49:44,0.03,2.72,0.00,26.44,28.90,31.74,5.72,29.88,1010.79,2038.10,2503.00,2610.02,2822.02,349.44,317.90,32.46,0000 0000 0000 0000 000000
2013-10-19 01:50:44,-0.03,2.72,0.00,26.49,28.90,31.72,5.91,29.92,1010.80,2038.07,2503.00,2610.01,2822.00,350.32,318.47,32.47,0000 0000 0000 0000 000000
2013-10-19 01:51:44,-0.01,2.72,0.00,26.56,28.90,31.70,6.01,30.04,1010.78,2038.11,2502.99,2610.01,2822.01,351.14,319.42,32.47,0000 0000 0000 0000 000000
2013-10-19 01:52:44,0.03,2.72,0.00,26.60,28.90,31.71,5.74,29.67,1010.77,2038.06,2502.98,2610.00,2822.00,350.17,318.39,32.48,0000 0000 0000 0000 000000
2013-10-19 01:53:45,-0.04,2.72,0.00,26.64,28.90,31.69,6.04,30.04,1010.77,2038.03,2502.97,2610.00,2822.00,350.78,319.11,32.49,0000 0000 0000 0000 000000
2013-10-19 01:54:45,-0.02,2.72,0.00,26.66,28.90,31.67,5.98,29.96,1010.78,2038.08,2502.97,2610.00,2822.00,350.59,318.75,32.49,0000 0000 0000 0000 000000
2013-10-19 01:55:45,0.05,2.72,0.00,26.66,28.90,31.67,5.88,30.08,1010.79,2038.07,2502.98,2610.00,2822.00,349.94,318.49,32.50,0000 0000 0000 0000 000000
2013-10-19 01:56:45,-0.01,2.72,0.00,26.61,28.90,31.66,5.67,29.83,1010.79,2038.04,2502.92,2610.00,2822.00,349.15,317.19,32.50,0000 0000 0000 0000 000000
2013-10-19 01:57:45,-0.00,2.72,0.00,26.66,28.90,31.64,5.96,30.04,1010.79,2038.03,2502.81,2610.00,2822.00,349.62,318.18,32.51,0000 0000 0000 0000 000000
2013-10-19 01:58:46,0.03,2.72,0.00,26.68,28.90,31.63,5.67,29.75,1010.78,2038.04,2502.59,2609.99,2822.00,349.17,317.84,32.52,0000 0000 0000 0000 000000
2013-10-19 01:59:46,0.04,2.72,0.00,26.67,28.90,31.62,5.69,29.79,1010.79,2038.06,2502.34,2609.99,2822.00,349.46,317.45,32.52,0000 0000 0000 0000 000000
2013-10-19 02:00:46,0.04,2.72,0.00,26.62,28.90,31.64,5.88,30.00,1010.77,2038.05,2502.17,2609.98,2822.00,351.10,318.80,32.53,0000 0000 0000 0000 000000
2013-10-19 02:01:47,0.05,2.72,0.00,26.65,28.90,31.63,5.63,29.75,1010.80,2038.06,2502.09,2609.99,2821.98,348.61,316.92,32.53,0000 0000 0000 0000 000000
2013-10-19 02:02:47,-0.00,2.72,0.00,26.66,28.90,31.64,6.10,29.96,1010.77,2038.04,2502.07,2609.98,2821.96,351.26,319.32,32.54,0000 0000 0000 0000 000000
2013-10-19 02:03:47,-0.00,2.72,0.00,26.68,28.90,31.63,5.73,29.83,1010.77,2038.03,2502.04,2609.95,2821.93,349.13,317.36,32.55,0000 0000 0000 0000 000000
2013-10-19 02:04:47,0.01,2.72,0.00,26.64,28.90,31.62,5.92,30.00,1010.77,2038.02,2502.01,2609.90,2821.88,349.87,318.33,32.55,0000 0000 0000 0000 000000
2013-10-19 02:05:48,0.02,2.72,0.00,26.63,28.90,31.62,5.67,29.75,1010.77,2038.02,2502.01,2609.94,2821.85,349.53,317.68,32.56,0000 0000 0000 0000 000000
2013-10-19 02:06:48,0.00,2.72,0.00,26.58,28.90,31.63,6.09,30.08,1010.77,2038.02,2502.02,2609.95,2821.86,351.10,319.25,32.56,0000 0000 0000 0000 000000
2013-10-19 02:07:48,0.00,2.72,0.00,26.61,28.90,31.63,5.75,29.79,1010.83,2038.03,2502.00,2609.93,2821.78,349.86,317.96,32.57,0000 0000 0000 0000 000000
2013-10-19 02:08:48,0.02,2.72,0.00,26.62,28.90,31.64,5.77,29.92,1010.79,2038.05,2502.00,2609.87,2821.64,349.75,318.21,32.57,0000 0000 0000 0000 000000
2013-10-19 02:09:48,0.06,2.72,0.00,26.67,28.89,31.62,5.98,30.04,1010.80,2038.06,2502.00,2609.90,2821.67,350.06,318.23,32.58,0000 0000 0000 0000 000000
2013-10-19 02:10:49,0.00,2.72,0.00,26.71,28.89,31.59,5.91,29.92,1010.79,2038.10,2502.00,2609.84,2821.57,350.18,318.50,32.59,0000 0000 0000 0000 000000
2013-10-19 02:11:49,0.07,2.72,0.00,26.71,28.89,31.59,6.03,30.08,1010.79,2038.11,2502.00,2609.74,2821.50,350.39,318.48,32.59,0000 0000 0000 0000 000000
2013-10-19 02:12:49,0.04,2.72,0.00,26.68,28.88,31.60,5.89,29.92,1010.78,2038.12,2502.00,2609.48,2821.27,350.33,318.61,32.60,0000 0000 0000 0000 000000
2013-10-19 02:13:49,0.12,2.72,0.00,26.64,28.88,31.58,5.90,29.92,1010.80,2038.06,2502.00,2609.30,2821.12,349.85,318.45,32.60,0000 0000 0000 0000 000000
2013-10-19 02:14:49,0.04,2.72,0.00,26.68,28.87,31.57,5.73,29.92,1010.82,2038.03,2501.99,2609.14,2821.07,349.73,317.80,32.61,0000 0000 0000 0000 000000
2013-10-19 02:15:50,0.02,2.72,0.00,26.73,28.87,31.56,5.95,30.04,1010.83,2038.02,2501.95,2609.09,2821.04,350.24,318.33,32.62,0000 0000 0000 0000 000000
2013-10-19 02:16:50,0.02,2.72,0.00,26.76,28.87,31.54,5.97,30.00,1010.84,2038.02,2501.93,2609.05,2821.02,350.97,318.87,32.62,0000 0000 0000 0000 000000
2013-10-19 02:17:50,0.01,2.72,0.00,26.74,28.87,31.53,5.95,29.96,1010.80,2038.04,2501.96,2609.03,2821.03,350.42,318.83,32.63,0000 0000 0000 0000 000000
2013-10-19 02:18:50,0.02,2.72,0.00,26.73,28.87,31.53,5.70,29.92,1010.84,2038.05,2501.93,2609.04,2821.03,348.48,317.40,32.63,0000 0000 0000 0000 000000
2013-10-19 02:19:51,0.01,2.72,0.00,26.70,28.87,31.51,5.67,29.71,1010.83,2038.07,2501.85,2609.04,2821.00,349.62,317.59,32.64,0000 0000 0000 0000 000000
2013-10-19 02:20:51,0.03,2.72,0.00,26.69,28.87,31.52,5.67,29.83,1010.79,2038.05,2501.56,2609.01,2821.00,349.96,317.83,32.64,0000 0000 0000 0000 000000
2013-10-19 02:21:51,0.06,2.72,0.00,26.69,28.87,31.51,5.64,30.00,1010.79,2038.04,2501.41,2609.00,2821.00,349.36,317.69,32.65,0000 0000 0000 0000 000000
2013-10-19 02:22:52,0.02,2.72,0.00,26.70,28.87,31.50,5.99,30.04,1010.77,2038.02,2501.37,2609.00,2821.00,350.80,318.86,32.66,0000 0000 0000 0000 000000
2013-10-19 02:23:52,0.00,2.72,0.00,26.69,28.87,31.54,5.73,30.04,1010.77,2038.01,2501.31,2609.01,2821.00,349.16,317.38,32.66,0000 0000 0000 0000 000000
2013-10-19 02:24:52,0.00,2.72,0.00,26.65,28.87,31.54,5.74,29.83,1010.80,2038.02,2501.21,2609.00,2821.00,348.90,317.18,32.67,0000 0000 0000 0000 000000
2013-10-19 02:25:52,0.04,2.72,0.00,26.68,28.87,31.51,5.77,29.83,1010.78,2038.04,2501.12,2609.00,2821.00,350.11,318.26,32.67,0000 0000 0000 0000 000000
2013-10-19 02:26:53,0.02,2.72,0.00,26.67,28.87,31.48,5.76,29.75,1010.76,2038.05,2501.10,2609.00,2821.00,349.39,317.61,32.68,0000 0000 0000 0000 000000
2013-10-19 02:27:53,0.01,2.72,0.00,26.60,28.87,31.52,5.93,30.08,1010.77,2038.09,2501.08,2609.00,2821.00,350.62,318.59,32.69,0000 0000 0000 0000 000000
2013-10-19 02:28:53,0.01,2.72,0.00,26.63,28.86,31.54,5.68,29.75,1010.77,2038.09,2501.08,2609.00,2821.00,349.83,317.85,32.69,0000 0000 0000 0000 000000
2013-10-19 02:29:53,0.02,2.72,0.00,26.63,28.85,31.53,6.08,30.17,1010.77,2038.06,2501.04,2609.00,2821.00,349.26,317.87,32.70,0000 0000 0000 0000 000000
2013-10-19 02:30:54,-0.03,2.72,0.00,26.59,28.85,31.54,5.82,29.79,1010.76,2038.07,2501.04,2609.00,2821.00,349.46,317.35,32.70,0000 0000 0000 0000 000000
2013-10-19 02:31:54,0.02,2.72,0.00,26.56,28.85,31.55,6.04,30.00,1010.76,2038.06,2501.02,2609.00,2821.00,351.02,318.97,32.71,0000 0000 0000 0000 000000
2013-10-19 02:32:54,-0.02,2.72,0.00,26.52,28.85,31.55,5.67,29.96,1010.76,2038.04,2501.00,2609.00,2821.00,349.04,317.44,32.71,0000 0000 0000 0000 000000
2013-10-19 02:33:54,-0.01,2.72,0.00,26.49,28.85,31.56,6.02,30.08,1010.76,2038.04,2501.00,2609.00,2821.00,350.80,318.58,32.72,0000 0000 0000 0000 000000
2013-10-19 02:34:55,0.01,2.72,0.00,26.49,28.85,31.56,5.85,29.96,1010.76,2038.06,2501.01,2609.00,2820.99,349.82,318.33,32.73,0000 0000 0000 0000 000000
2013-10-19 02:35:55,0.00,2.72,0.00,26.51,28.85,31.56,5.93,30.17,1010.76,2038.05,2501.00,2609.00,2820.97,350.34,318.80,32.73,0000 0000 0000 0000 000000